TA2LKM-12 Weather Reports


time (UTC)temp
F
wind
direction
speed
knots
gust
knots
rain 1hr
in
rain 24hr
in
rain mn
in
humidity
%
barometer
mb
20260506033004 47 0 0.0 0.0 0.00 0.00 0.00 99 999.4
20260506030004 47 0 0.0 0.0 0.00 0.00 0.00 99 999.1
20260506023005 47 0 0.0 0.0 0.00 0.00 0.00 95 999.0
20260506020006 46 0 0.0 0.0 0.00 0.00 0.00 89 999.0
20260506013006 44 0 0.0 0.0 0.00 0.00 0.00 89 998.8
20260506010003 45 0 0.0 0.0 0.00 0.00 0.00 89 998.8
20260506003006 45 0 0.0 0.0 0.00 0.00 0.00 10 998.9
20260506000005 46 0 0.0 0.0 0.00 0.00 0.00 89 998.8
20260505233003 47 0 0.0 0.0 0.00 0.00 0.00 88 998.9
20260505230002 49 0 0.0 0.0 0.00 0.00 0.00 89 999.0
20260505223005 51 0 0.0 0.0 0.00 0.00 0.00 88 999.2
20260505220004 52 0 0.0 0.0 0.00 0.00 0.00 85 999.2
20260505213003 53 0 0.0 0.0 0.00 0.00 0.00 83 999.3
20260505210004 53 0 0.0 0.0 0.00 0.00 0.00 83 999.3
20260505203004 53 0 0.0 0.0 0.00 0.00 0.00 83 999.2
20260505200003 54 0 0.0 0.0 0.00 0.00 0.00 80 999.1
20260505193003 55 0 0.0 0.0 0.00 0.00 0.00 79 999.1
20260505190005 55 0 0.0 0.0 0.00 0.00 0.00 78 999.1
20260505183005 55 0 0.0 0.0 0.00 0.00 0.00 84 1278.9
20260505180004 55 0 0.0 0.0 0.00 0.00 0.00 75 999.0
20260505173003 55 0 0.0 0.0 0.00 0.00 0.00 74 998.8
20260505170005 56 0 0.0 0.0 0.00 0.00 0.00 70 998.9
20260505163003 58 0 0.0 0.0 0.00 0.00 0.00 63 998.8
20260505153004 60 0 0.0 0.0 0.00 0.00 0.00 60 998.8
20260505123003 64 0 0.0 0.0 0.00 0.00 0.00 49 999.0
20260505120006 66 0 0.0 0.0 0.00 0.00 0.00 46 1141.3
20260505113003 68 0 0.0 0.0 0.00 0.00 0.00 43 999.0
20260505100003 69 0 0.0 0.0 0.00 0.00 0.00 41 998.9
20260505093004 69 0 0.0 0.0 0.00 0.00 0.00 42 999.0
20260505090005 65 0 0.0 0.0 0.00 0.00 0.00 53 999.2
20260505083003 65 0 0.0 0.0 0.00 0.00 0.00 53 999.3
20260505080004 64 0 0.0 0.0 0.00 0.00 0.00 58 999.1
20260505073004 63 0 0.0 0.0 0.00 0.00 0.00 63 999.2
20260505070001 59 0 0.0 0.0 0.00 0.00 0.00 69 999.3
20260505063003 57 0 0.0 0.0 0.00 0.00 0.00 73 999.2
20260505060004 56 0 0.0 0.0 0.00 0.00 0.00 77 999.1
20260505053002 56 0 0.0 0.0 0.00 0.00 0.00 76 998.7
20260505040005 50 0 0.0 0.0 0.00 0.00 0.00 92 998.0